This is the latest recevied weather packets stored in our database for station/object IR4UCA-3. If no packets are shown the sender has not sent any weather packets the latest 1 day(s).
| Time | Temp. | Humidity | Pressure | Rain* | Wind** | Luminosity | Snow |
|---|---|---|---|---|---|---|---|
| 1777985590 | 18.89° C | 86% | 1011.6 hPa | 0 mm | 1.79 m/s, 7° | - | - |
| 1777985469 | 18.89° C | 86% | 1011.6 hPa | 0 mm | 1.79 m/s, 51° | - | - |
| 1777985347 | 18.89° C | 86% | 1011.7 hPa | 0 mm | 0.89 m/s, 68° | - | - |
| 1777985227 | 18.89° C | 86% | 1011.7 hPa | 0 mm | 1.79 m/s, 68° | - | - |
| 1777985119 | 18.89° C | 85% | 1011.8 hPa | 0 mm | 1.34 m/s, 24° | - | - |
| 1777984989 | 18.89° C | 86% | 1011.7 hPa | 0 mm | 1.34 m/s, 59° | - | - |
| 1777984871 | 18.89° C | 86% | 1011.7 hPa | 0 mm | 1.34 m/s, 55° | - | - |
| 1777984749 | 18.89° C | 87% | 1011.8 hPa | 0 mm | 0.89 m/s, 52° | - | - |
| 1777984624 | 18.89° C | 87% | 1011.7 hPa | 0 mm | 1.34 m/s, 52° | - | - |
| 1777984515 | 18.89° C | 87% | 1011.8 hPa | 0 mm | 0.45 m/s, 45° | - | - |
| 1777984384 | 18.33° C | 87% | 1011.7 hPa | 0 mm | 0.89 m/s, 45° | - | - |
| 1777984265 | 18.33° C | 87% | 1011.7 hPa | 0 mm | 0.89 m/s, 65° | - | - |
| 1777984143 | 18.33° C | 87% | 1011.9 hPa | 0 mm | 1.79 m/s, 65° | - | - |
| 1777984023 | 18.33° C | 87% | 1012 hPa | 0 mm | 0.89 m/s, 65° | - | - |
| 1777983907 | 18.33° C | 87% | 1012 hPa | 0 mm | 1.34 m/s, 65° | - | - |
| 1777983788 | 18.33° C | 87% | 1012 hPa | 0 mm | 1.34 m/s, 65° | - | - |
| 1777983663 | 18.33° C | 88% | 1012.1 hPa | 0 mm | 1.34 m/s, 65° | - | - |
| 1777983544 | 18.33° C | 88% | 1012 hPa | 0 mm | 0.89 m/s, 66° | - | - |
| 1777983421 | 18.33° C | 87% | 1012 hPa | 0 mm | 2.24 m/s, 66° | - | - |
| 1777983301 | 18.33° C | 88% | 1012.1 hPa | 0 mm | 2.24 m/s, 61° | - | - |
| 1777983181 | 18.33° C | 88% | 1012.1 hPa | 0 mm | 0.89 m/s, 103° | - | - |
| 1777983064 | 18.33° C | 88% | 1012.1 hPa | 0 mm | 2.24 m/s, 113° | - | - |
| 1777982944 | 18.33° C | 88% | 1012.2 hPa | 0 mm | 2.24 m/s, 65° | - | - |
| 1777982822 | 18.33° C | 89% | 1012.2 hPa | 0 mm | 1.34 m/s, 62° | - | - |
| 1777982701 | 17.78° C | 88% | 1012.2 hPa | 0 mm | 1.34 m/s, 66° | - | - |
* Rain latest hour (hover to see other rain measurements)
** Current wind speed in m/s (hover to see current wind gust speed)